Regional Weather Roundup
Issued by NWS Boston, MA

Current Version | Previous Version | Text Only | Print | Product List | Glossary Off
Versions: 1 2 3 4 5 6 7 8 9 10 11 12 13 14 15 16 17 18 19 20 21 22 23 24 25 26 27 28 29 30 31 32 33 34 35 36 37 38 39 40 41 42 43 44 45 46 47 48 49 50
079 ASUS41 KBOX 181310 RWRBOX REGIONAL WEATHER ROUNDUP NATIONAL WEATHER SERVICE BOSTON/NORTON MA 900 AM EDT MON JUN 18 2018 NOTE: "FAIR" INDICATES FEW OR NO CLOUDS BELOW 12,000 FEET WITH NO SIGNIFICANT WEATHER AND/OR OBSTRUCTIONS TO VISIBILITY. MAZALL-181400- EASTERN MASSACHUSETTS CITY SKY/WX TMP DP RH WIND PRES REMARKS BOSTON PTSUNNY 77 62 59 SW15 29.93F BEVERLY PTSUNNY 76 64 66 SW8 29.92F LAWRENCE FAIR 80 62 54 SW9 29.93F BEDFORD PTSUNNY 79 64 60 SW9 29.92F BLUE HILL N/A 74 64 71 SW17G23 29.95F NORWOOD FAIR 80 65 59 S10 29.95F MARSHFIELD FAIR 77 64 65 SW14G22 29.95F PLYMOUTH FAIR 75 62 64 SW12G21 29.98F TAUNTON FAIR 76 63 64 SW10G17 29.98S NEW BEDFORD FAIR 75 67 76 SW15 29.99F $$ MAZALL-181400- CAPE COD AND THE ISLANDS CITY SKY/WX TMP DP RH WIND PRES REMARKS FALMOUTH FAIR 73 66 78 SW15G25 30.01F HYANNIS FAIR 72 65 78 SW14 29.99F CHATHAM FAIR 68 62 81 SW12G20 30.02F PROVINCETOWN FAIR 69 64 84 SW20G25 29.97F NANTUCKET FAIR 64 60 87 SW13 30.04F MARTHAS VNYRD FAIR 69 63 81 SW16G22 30.02F $$ MAZALL-181400- CENTRAL AND WESTERN MASSACHUSETTS CITY SKY/WX TMP DP RH WIND PRES REMARKS WORCESTER FAIR 73 62 68 SW12 29.98F FITCHBURG FAIR 75 64 68 S5 29.94F ORANGE FAIR 73 62 68 S8 29.97F SPRINGFIELD NOT AVBL WESTFIELD FAIR 73 64 73 S8 29.96F NORTH ADAMS FAIR 74 61 63 E8 29.96F PITTSFIELD FAIR 76 63 64 NE5 29.98F $$ RIZALL-181400- RHODE ISLAND CITY SKY/WX TMP DP RH WIND PRES REMARKS PROVIDENCE PTSUNNY 77 63 61 SW12 29.99F NEWPORT FAIR 69 65 86 S8G20 30.00S BLOCK ISLAND FAIR 69 62 78 SW20G25 30.03F SMITHFIELD FAIR 74 64 71 SW8 29.99F WESTERLY FAIR 72 67 84 SW12 30.03S $$ CTZALL-181400- CONNECTICUT CITY SKY/WX TMP DP RH WIND PRES REMARKS BRADLEY INTL PTSUNNY 76 63 64 S8 29.97F HARTFORD FAIR 77 65 66 S10 29.97F BRIDGEPORT FAIR 73 65 75 SW7 30.01F DANBURY SUNNY 75 64 69 SW7 30.02F GROTON FAIR 69 65 86 SW8 30.01F NEW HAVEN FAIR 73 66 78 SW6 30.01F CHESTER FAIR 75 66 73 SW10G18 30.02F MERIDEN FAIR 76 64 66 S9 29.99F WILLIMANTIC FAIR 75 65 70 SW9 29.99F OXFORD FAIR 74 64 71 SW7 30.03F $$ MEZ002-015-021-024-NHZ003-005-008-011-012-014-VTZ005-008-181400- NORTHERN NEW ENGLAND CITY SKY/WX TMP DP RH WIND PRES REMARKS PORTLAND ME CLOUDY 67 58 72 SW9 29.87F BANGOR ME RAIN 57 56 96 S12 29.86F FOG CONCORD NH FAIR 74 61 63 S7 29.91F MANCHESTER NH PTSUNNY 78 61 55 S9 29.89F NASHUA NH FAIR 77 64 64 VRB3 29.92F PORTSMOUTH NH NOT AVBL JAFFREY NH FAIR 73 62 68 SW8 29.97F KEENE NH FAIR 76 61 59 S9 29.94F BURLINGTON VT PTSUNNY 79 62 56 S16 29.83F MT. WASHINGTON FOG 55 55 100 W52 N/A VSB 0 $$ NYZ052-076-181400- EASTERN NEW YORK CITY SKY/WX TMP DP RH WIND PRES REMARKS ALBANY PTSUNNY 75 62 64 S10 29.95S NEW YORK CITY PTSUNNY 80 66 62 S10 30.01F $$ ANZALL-181400- MARINE OBSERVATIONS STATION/POSITION TIME TEMP WIND PRES VSBY WAVE AIR SEA DIR/SP/G HT/PER (UTC) (F) (DEG/KT/KT) (MB) (MI) (FT/S) BOSTON BUOY 1250 65 61 200/ 12/ 12 1013.7F 2/ 3 BUZZARDS BAY 1200 64 210/ 21/ 22 1017.2F NANTUCKET SOUND 1250 64 62 210/ 16/ 19 1016.3F 1/ 3 MASS BAY-STELLWA 1204 61 60 1012.4F 2/ 8 ISLE OF SHOALS 1200 66 210/ 15/ 15 1012.5F S OF BLOCK IS 1243 59 N/A 2/ 3 $$ ......................KEY......................... SKY/WX - SKY CONDITION/PRESENT WEATHER TMP - TEMPERATURE IN FAHRENHEIT DWPT - DEWPOINT IN FAHRENHEIT RH - RELATIVE HUMIDITY IN PERCENT WIND - DIRECTION AND SPEED IN MPH PRES - MEAN SEA LEVEL PRESSURE IN INCHES OF HG WCI - WIND CHILL INDEX VSB - VISIBILITY IN MILES HX - HEAT INDEX TC - TEMPERATURE IN CELSIUS VRB - VARIABLE WIND DIRECTION N/A - NOT AVAILABLE

USA.gov is the U.S. government's official web portal to all federal, state and local government web resources and services.